This demonstration page uses our WeatherBlox Daily Observations layout. Learn more.

41.55636, -103.73856

Hourly Observations for January 10, 2019

Temp ( °F °C ) Dew Point ( °F °C ) Humidity (%) Winds ( mph kmh ) Pressure ( in mb ) Visibility ( mi km ) Precip ( " mm )
12:53 am 00:53 Clear 22 -5.6 21 -6.1 96 96 ESE 6 9 30.12 1020 10 16.09344 0 0
1:53 am 01:53 Clear 22 -5.6 21 -6.1 96 96 Calm 30.15 1021 10 16.09344 0 0
2:53 am 02:53 Clear 21 -6.1 20 -6.7 96 96 WNW 3 6 30.15 1021 10 16.09344 0 0
3:53 am 03:53 Clear 21 -6.1 20 -6.7 96 96 NNW 6 9 30.12 1020 10 16.09344 0 0
4:53 am 04:53 Clear 20 -6.7 19 -7.2 96 96 NW 3 6 30.12 1020 10 16.09344 0 0
5:53 am 05:53 Clear 20 -6.7 18 -7.8 92 92 Calm 30.12 1020 10 16.09344 0 0
6:53 am 06:53 Clear 20 -6.7 19 -7.2 96 96 Calm 30.12 1020 10 16.09344 0 0
7:53 am 07:53 Sunny 24 -4.4 21 -6.1 88 88 Calm 30.15 1021 10 16.09344 0 0
8:53 am 08:53 Sunny 30 -1.1 24 -4.4 79 79 NW 3 6 30.15 1021 10 16.09344 0 0
9:53 am 09:53 Sunny 40 4.4 26 -3.3 58 58 W 6 9 30.12 1020 10 16.09344 0 0
10:53 am 10:53 Sunny 52 11.1 28 -2.2 40 40 W 9 15 30.06 1018 10 16.09344 0 0
11:53 am 11:53 Sunny 57 13.9 27 -2.8 32 32 WNW 16 26 30.03 1017 10 16.09344 0 0
12:53 pm 12:53 Sunny 59 15 27 -2.8 29 29 WNW 16 26 29.97 1015 10 16.09344 0 0
1:53 pm 13:53 Sunny 61 16.1 27 -2.8 27 27 WNW 12 19 29.97 1015 10 16.09344 0 0
2:53 pm 14:53 Sunny 61 16.1 26 -3.3 26 26 WNW 13 20 29.97 1015 10 16.09344 0 0
3:53 pm 15:53 Sunny 53 11.7 26 -3.3 35 35 NNW 5 7 30 1016 10 16.09344 0 0
4:53 pm 16:53 Clear 43 6.1 23 -5 45 45 NNE 12 19 30.03 1017 10 16.09344 0 0
5:53 pm 17:53 Clear 37 2.8 23 -5 57 57 N 9 15 30.06 1018 10 16.09344 0 0
6:53 pm 18:53 Clear 38 3.3 24 -4.4 57 57 Calm 30.09 1019 10 16.09344 0 0
7:53 pm 19:53 Clear 34 1.1 23 -5 64 64 NE 3 6 30.09 1019 10 16.09344 0 0
8:53 pm 20:53 Clear 33 0.6 24 -4.4 70 70 NNE 3 6 30.06 1018 10 16.09344 0 0
9:53 pm 21:53 Clear 28 -2.2 22 -5.6 78 78 WNW 6 9 30.09 1019 10 16.09344 0 0
10:53 pm 22:53 Clear 29 -1.7 23 -5 78 78 NW 8 13 30.06 1018 10 16.09344 0 0
11:53 pm 23:53 Clear 28 -2.2 22 -5.6 78 78 NW 7 11 30.06 1018 10 16.09344 0 0

Powered by AerisWeather